Flag for Germany Weather past 2 weeks in Hildesheim, Lower Saxony, Germany

Now
41 °F

Passing clouds.


Feels Like: 32 °F
Forecast: 35 / 42 °F
Wind: 18 mph from Southwest

Location: Braunschweig

Current Time: Mar 3, 2015 at 6:33:53 PM

Latest Report: Mar 3, 2015 at 6:20 PM


Visibility: N/A

Pressure: 29.89 "Hg

Humidity: 87%

Dew point: 37 °F

Location of HildesheimLocation

Historic Weather in Hildesheim — Graph

°F

Hildesheim temperature yesterday

Maximum temperature yesterday: 48 °F (at 3:20 PM)
Minimum temperature yesterday: 36 °F (at 8:20 PM)
Average temperature yesterday: 41 °F

Past Weeks' High & Low Weather Summary

 TemperatureHumidityPressure
High52 °F (Feb 26, 3:20 PM)100% (Feb 17, 6:50 AM)30.74 "Hg (Feb 17, 6:50 AM)
Low27 °F (Feb 26, 6:50 AM)47% (Feb 26, 3:20 PM)29.33 "Hg (Feb 21, 9:50 AM)
Average40 °F79%29.93 "Hg
* Reported Feb 16 5:20 PM — Mar 3 5:20 PM, Hildesheim, Weather by CustomWeather, © 2015

Note: Actual official high and low records may vary slightly from our data, if they occured in-between our weather recording intervals... More about our weather records

Advertising

Hildesheim weather history for previous 24 hours

 ConditionsComfort  
Time TempWeatherWind HumidityBarometerVisibility
5:20 PM
Tue, Mar 3
41 °FDrizzle. Broken clouds.17 mph87%29.92 "HgN/A
4:50 PM41 °FDrizzle. Partly sunny.21 mph87%29.92 "HgN/A
4:20 PM45 °FDrizzle. Partly sunny.15 mph66%29.92 "HgN/A
3:50 PM43 °FDrizzle. Partly sunny.9 mph76%29.92 "HgN/A
3:20 PM45 °FBroken clouds.12 mph66%29.95 "HgN/A
2:50 PM43 °FPartly sunny.13 mph71%29.95 "HgN/A
2:20 PM45 °FDrizzle. Broken clouds.12 mph66%29.98 "HgN/A
1:50 PM43 °FBroken clouds.15 mph71%29.98 "HgN/A
1:20 PM45 °FPartly sunny.12 mph66%30.01 "HgN/A
12:50 PM43 °FMostly cloudy.15 mph71%30.01 "HgN/A
12:20 PM43 °FPartly sunny.14 mph71%30.01 "HgN/A
11:50 AM43 °FBroken clouds.16 mph71%30.01 "HgN/A
11:20 AM41 °FMostly cloudy.15 mph76%30.01 "HgN/A
10:50 AM41 °FMore clouds than sun.16 mph76%30.01 "HgN/A
10:20 AM39 °FPartly sunny.13 mph81%30.01 "HgN/A
9:50 AM39 °FBroken clouds.14 mph81%30.01 "HgN/A
9:20 AM39 °FPartly sunny.16 mph81%30.01 "HgN/A
8:50 AM39 °FScattered clouds.14 mph81%29.98 "HgN/A
8:20 AM37 °FSunny.13 mph81%29.98 "Hg10 mi
7:50 AM36 °FSunny.15 mph87%29.98 "Hg10 mi
7:20 AM36 °FPassing clouds.13 mph81%29.98 "HgN/A
6:50 AM36 °FPassing clouds.15 mph87%29.95 "HgN/A
9:50 PM
Mon, Mar 2
37 °FPartly cloudy.13 mph93%29.74 "HgN/A
9:20 PM36 °FPassing clouds.13 mph100%29.74 "HgN/A
8:50 PM36 °FPartly cloudy.16 mph100%29.71 "HgN/A
8:20 PM36 °FSnow showers. Passing clouds.18 mph100%29.71 "Hg4 mi
7:50 PM39 °FPartly cloudy.10 mph87%29.68 "HgN/A
7:20 PM37 °FOvercast.5 mph100%29.65 "HgN/A
6:50 PM39 °FOvercast.9 mph87%29.68 "HgN/A
6:20 PM37 °FRain showers. Partly cloudy.7 mph100%29.65 "HgN/A
Weather by CustomWeather, © 2015

See weather overviewHow to use our weather pages